Powrót do katalogu

STARLINK-3867

AktywnyŁącznośćVLEO
NORAD 52587·PAYLOAD·🇺🇸 United States

Wystrzelony May 13, 2022 z Vandenberg Space Force Base

Loading…

Następne Przeloty (najbliższe 24 godziny)

TLE

ŚwieżeSource: CelesTrak SupGP

Epoka: Sep 14, 2026, 20:46 UTC

1 52587C 22051BD  26257.86576389 -.00033151  00000+0 -10662-2 0  2579
2 52587  53.1582 336.0866 0001170  81.2019 334.3658 15.31712797    11

Śledź STARLINK-3867 w czasie rzeczywistym z AllMySat

Download on the App Store